FW2402 Weather Reports


time (UTC)temp
C
wind
direction
speed
KPH
gust
KPH
rain 1hr
cm
rain 24hr
cm
rain mn
cm
humidity
%
barometer
mb
20260510063517 21 0 0.0 0.0 0.00 0.00 0.00 93 1013.0
20260510063032 22 0 0.0 1.6 0.00 0.00 0.00 93 1013.2
20260510062517 22 0 0.0 1.6 0.00 0.00 0.00 93 1013.3
20260510062017 21 0 0.0 1.6 0.00 0.00 0.00 93 1013.4
20260510061537 21 0 0.0 0.0 0.00 0.00 0.00 93 1013.6
20260510061017 21 0 0.0 0.0 0.00 0.00 0.00 93 1013.6
20260510060517 21 0 0.0 0.0 0.00 0.00 0.00 93 1013.6
20260510060038 21 0 0.0 0.0 0.00 0.00 0.00 93 1013.7
20260510055517 21 0 0.0 0.0 0.00 0.00 0.00 93 1013.8
20260510055017 21 0 0.0 3.2 0.00 0.00 0.00 93 1013.8
20260510054542 21 0 0.0 3.2 0.00 0.00 0.00 93 1013.9
20260510054017 21 0 0.0 3.2 0.00 0.00 0.00 91 1013.8
20260510053522 22 0 0.0 0.0 0.00 0.00 0.00 92 1013.8
20260510053043 22 0 0.0 1.6 0.00 0.00 0.00 93 1013.7
20260510052518 22 0 0.0 1.6 0.00 0.00 0.00 93 1013.8
20260510052018 22 0 0.0 1.6 0.00 0.00 0.00 93 1013.9
20260510051548 22 0 0.0 0.0 0.00 0.00 0.00 92 1013.9
20260510051021 22 0 0.0 0.0 0.00 0.00 0.00 92 1014.0
20260510050517 22 0 0.0 0.0 0.00 0.00 0.00 92 1014.0
20260510050036 22 0 0.0 0.0 0.00 0.00 0.00 92 1014.1
20260510045516 22 0 0.0 0.0 0.00 0.00 0.00 91 1014.1
20260510045018 22 0 0.0 0.0 0.00 0.00 0.00 91 1014.2
20260510044537 22 0 0.0 0.0 0.00 0.00 0.00 91 1014.3
20260510044017 22 0 0.0 0.0 0.00 0.00 0.00 90 1014.3
20260510043517 22 0 0.0 0.0 0.00 0.00 0.00 90 1014.3
20260510043035 23 0 0.0 0.0 0.00 0.00 0.00 90 1014.3
20260510042519 23 0 0.0 0.0 0.00 0.00 0.00 89 1014.4
20260510042019 23 0 0.0 3.2 0.00 0.00 0.00 89 1014.4
20260510041535 23 0 0.0 4.8 0.00 0.00 0.00 88 1014.2
20260510041018 23 25 0.0 4.8 0.00 0.00 0.00 88 1014.3
20260510040517 23 28 1.6 4.8 0.00 0.00 0.00 88 1014.3
20260510040044 23 29 1.6 6.4 0.00 0.00 0.00 88 1014.2
20260510035516 23 87 3.2 9.7 0.00 0.00 0.00 88 1014.1
20260510035020 23 69 3.2 9.7 0.00 0.00 0.00 88 1014.0
20260510034532 23 63 3.2 6.4 0.00 0.00 0.00 88 1014.0
20260510034019 23 59 3.2 8.0 0.00 0.00 0.00 89 1014.1
20260510033516 23 88 3.2 8.0 0.00 0.00 0.00 89 1014.1
20260510033045 23 98 3.2 8.0 0.00 0.00 0.00 89 1014.1
20260510032516 23 94 1.6 4.8 0.00 0.00 0.00 89 1014.1
20260510032017 23 108 0.0 3.2 0.00 0.00 0.00 90 1014.2
20260510031537 23 0 0.0 0.0 0.00 0.00 0.00 89 1014.2
20260510031018 23 0 0.0 1.6 0.00 0.00 0.00 88 1014.3
20260510030518 23 0 0.0 1.6 0.00 0.00 0.00 88 1014.3
20260510030037 23 0 0.0 3.2 0.00 0.00 0.00 88 1014.2
20260510025519 23 0 0.0 4.8 0.00 0.00 0.00 87 1014.1
20260510025020 24 0 0.0 6.4 0.00 0.00 0.00 86 1014.0
20260510024536 24 0 1.6 6.4 0.00 0.00 0.00 87 1014.1
20260510024018 24 82 1.6 6.4 0.00 0.00 0.00 87 1014.1
20260510023520 24 68 1.6 4.8 0.00 0.00 0.00 86 1014.1
20260510023034 24 78 3.2 4.8 0.00 0.00 0.00 86 1014.0
20260510022520 24 72 1.6 6.4 0.00 0.00 0.00 85 1013.9
20260510022017 24 72 1.6 8.0 0.00 0.00 0.00 85 1013.9
20260510021543 24 59 3.2 8.0 0.00 0.00 0.00 84 1013.9
20260510021018 24 77 3.2 8.0 0.00 0.00 0.00 83 1013.8
20260510020516 25 84 3.2 8.0 0.00 0.00 0.00 82 1013.8
20260510020037 25 65 3.2 8.0 0.00 0.00 0.00 82 1013.8
20260510015516 24 49 3.2 6.4 0.00 0.00 0.00 82 1013.7
20260510015016 24 0 0.0 0.0 0.00 0.00 0.00 83 1013.7
20260510014536 24 0 0.0 0.0 0.00 0.00 0.00 82 1013.7
20260510014017 24 0 0.0 0.0 0.00 0.00 0.00 80 1013.6
20260510013517 24 0 0.0 0.0 0.00 0.00 0.00 80 1013.6
20260510013036 25 0 0.0 0.0 0.00 0.00 0.00 78 1013.5
20260510012517 25 0 0.0 0.0 0.00 0.00 0.00 77 1013.4
20260510012017 25 0 0.0 0.0 0.00 0.00 0.00 76 1013.4
20260510011538 25 0 0.0 0.0 0.00 0.00 0.00 75 1013.3
20260510011016 25 0 0.0 0.0 0.00 0.00 0.00 76 1013.2
20260510010516 25 0 0.0 0.0 0.00 0.00 0.00 75 1013.3
20260510010045 26 0 0.0 0.0 0.00 0.00 0.00 75 1013.3
20260510005517 26 0 0.0 0.0 0.00 0.00 0.00 75 1013.1
20260510005020 26 0 0.0 0.0 0.00 0.00 0.00 75 1013.2
20260510004541 26 0 0.0 0.0 0.00 0.00 0.00 74 1013.2
20260510004016 26 0 0.0 3.2 0.00 0.00 0.00 74 1013.0
20260510003516 26 0 0.0 3.2 0.00 0.00 0.00 74 1013.0
20260510003046 26 0 0.0 6.4 0.00 0.00 0.00 74 1012.9
20260510002516 26 0 0.0 11.3 0.00 0.00 0.00 74 1012.8
20260510002016 26 286 3.2 11.3 0.00 0.00 0.00 73 1012.9
20260510001537 26 284 4.8 14.5 0.00 0.00 0.00 73 1012.7
20260510001016 26 310 3.2 14.5 0.00 0.00 0.00 72 1012.6
20260510000516 26 271 4.8 19.3 0.00 0.00 0.00 71 1012.4
20260510000037 27 277 3.2 19.3 0.00 0.00 0.00 70 1012.3
20260509235519 27 288 6.4 19.3 0.00 0.00 0.00 70 1012.3
20260509235017 27 285 6.4 17.7 0.00 0.00 0.00 69 1012.3
20260509234534 27 286 6.4 17.7 0.00 0.00 0.00 69 1012.3
20260509234018 27 273 8.0 17.7 0.00 0.00 0.00 68 1012.3
20260509233516 27 262 6.4 17.7 0.00 0.00 0.00 67 1012.2
20260509233034 28 316 4.8 12.9 0.00 0.00 0.00 67 1012.2
20260509232517 28 285 4.8 17.7 0.00 0.00 0.00 65 1012.0
20260509232019 28 268 4.8 20.9 0.00 0.00 0.00 64 1012.0
20260509231538 28 245 11.3 22.5 0.00 0.00 0.00 63 1011.9
20260509231016 28 269 12.9 25.7 0.00 0.00 0.00 63 1011.8
20260509230516 28 289 14.5 25.7 0.00 0.00 0.00 62 1011.7
20260509230032 28 281 9.7 25.7 0.00 0.00 0.00 61 1011.6
20260509225516 29 269 11.3 22.5 0.00 0.00 0.00 60 1011.6
20260509225019 29 253 12.9 24.1 0.00 0.00 0.00 59 1011.5
20260509224537 30 286 9.7 24.1 0.00 0.00 0.00 59 1011.4
20260509224020 30 269 11.3 24.1 0.00 0.00 0.00 58 1011.2
20260509223520 30 280 8.0 20.9 0.00 0.00 0.00 58 1011.1
20260509223035 30 256 12.9 22.5 0.00 0.00 0.00 58 1011.0
20260509222517 30 261 12.9 22.5 0.00 0.00 0.00 58 1011.0
20260509222016 30 281 9.7 19.3 0.00 0.00 0.00 58 1010.9
20260509221535 30 261 8.0 20.9 0.00 0.00 0.00 57 1010.9
20260509221020 31 263 8.0 20.9 0.00 0.00 0.00 57 1010.9
20260509220519 31 290 9.7 17.7 0.00 0.00 0.00 56 1010.8
20260509220044 31 19 8.0 17.7 0.00 0.00 0.00 57 1010.7
20260509215519 31 272 6.4 17.7 0.00 0.00 0.00 58 1010.7
20260509215020 31 287 9.7 17.7 0.00 0.00 0.00 58 1010.7
20260509214556 31 256 6.4 16.1 0.00 0.00 0.00 58 1010.7
20260509214022 31 275 6.4 16.1 0.00 0.00 0.00 58 1010.6
20260509213516 31 280 8.0 16.1 0.00 0.00 0.00 58 1010.6
20260509213041 31 288 6.4 16.1 0.00 0.00 0.00 57 1010.5
20260509212516 31 281 4.8 16.1 0.00 0.00 0.00 57 1010.4
20260509212017 31 298 8.0 16.1 0.00 0.00 0.00 55 1010.5
20260509211538 32 294 3.2 16.1 0.00 0.00 0.00 55 1010.3
20260509211016 32 265 8.0 19.3 0.00 0.00 0.00 55 1010.3
20260509210516 31 279 9.7 19.3 0.00 0.00 0.00 55 1010.2
20260509210045 31 282 9.7 25.7 0.00 0.00 0.00 55 1010.3
20260509205516 32 81 9.7 25.7 0.00 0.00 0.00 54 1010.2
20260509205016 32 265 14.5 22.5 0.00 0.00 0.00 52 1010.1
20260509204536 32 259 11.3 22.5 0.00 0.00 0.00 53 1010.1
20260509204017 32 279 16.1 22.5 0.00 0.00 0.00 52 1010.2
20260509203518 32 274 8.0 17.7 0.00 0.00 0.00 54 1010.2
20260509203038 32 282 9.7 27.4 0.00 0.00 0.00 51 1010.2
20260509202518 32 298 16.1 27.4 0.00 0.00 0.00 55 1010.1
20260509202023 31 284 14.5 24.1 0.00 0.00 0.00 55 1010.2
20260509201533 31 275 16.1 25.7 0.00 0.00 0.00 56 1010.2
20260509201016 31 248 14.5 29.0 0.00 0.00 0.00 57 1010.3
20260509200516 31 267 20.9 29.0 0.00 0.00 0.00 58 1010.3
20260509200046 30 263 16.1 24.1 0.00 0.00 0.00 59 1010.3
20260509195517 30 261 14.5 24.1 0.00 0.00 0.00 61 1010.3
20260509195016 30 296 9.7 17.7 0.00 0.00 0.00 63 1010.5
20260509194548 30 285 4.8 14.5 0.00 0.00 0.00 63 1010.3
20260509194018 29 323 4.8 14.5 0.00 0.00 0.00 63 1010.6
20260509193520 29 268 4.8 17.7 0.00 0.00 0.00 63 1010.7
20260509193039 28 288 8.0 24.1 0.00 0.00 0.00 63 1010.7
20260509192516 29 306 9.7 24.1 0.00 0.00 0.00 62 1010.8
20260509192016 30 252 11.3 22.5 0.00 0.00 0.00 61 1010.8
20260509191536 31 266 3.2 24.1 0.00 0.00 0.00 56 1011.0
20260509191019 32 298 12.9 24.1 0.00 0.00 0.00 46 1010.8
20260509190517 33 209 9.7 24.1 0.00 0.00 0.00 46 1010.7
20260509190034 33 271 1.6 24.1 0.00 0.00 0.00 46 1010.7
20260509185521 35 257 12.9 24.1 0.00 0.00 0.00 43 1010.6
20260509185018 34 282 9.7 25.7 0.00 0.00 0.00 46 1010.7
20260509184541 33 198 8.0 25.7 0.00 0.00 0.00 49 1010.8
20260509184019 32 246 9.7 19.3 0.00 0.00 0.00 49 1011.1
20260509183517 33 234 9.7 27.4 0.00 0.00 0.00 48 1011.2
20260509183058 33 251 14.5 27.4 0.00 0.00 0.00 48 1011.2
20260509182519 32 269 16.1 25.7 0.00 0.00 0.00 49 1011.2
20260509182020 32 242 11.3 19.3 0.00 0.00 0.00 50 1011.3
20260509181541 33 261 6.4 14.5 0.00 0.00 0.00 48 1011.3
20260509181017 33 248 4.8 16.1 0.00 0.00 0.00 50 1011.4
20260509180523 32 215 8.0 16.1 0.00 0.00 0.00 50 1011.5
20260509180037 33 260 4.8 19.3 0.00 0.00 0.00 49 1011.6
20260509175520 34 235 6.4 19.3 0.00 0.00 0.00 46 1011.6
20260509175016 33 257 6.4 17.7 0.00 0.00 0.00 48 1011.7
20260509174545 33 250 3.2 17.7 0.00 0.00 0.00 47 1011.7
20260509174024 34 250 3.2 20.9 0.00 0.00 0.00 47 1011.9
20260509173520 33 261 4.8 20.9 0.00 0.00 0.00 46 1011.9
20260509173045 34 259 4.8 17.7 0.00 0.00 0.00 47 1011.8
20260509172519 34 192 4.8 17.7 0.00 0.00 0.00 46 1011.8
20260509172025 35 229 3.2 19.3 0.00 0.00 0.00 46 1011.7
20260509171545 33 236 6.4 19.3 0.00 0.00 0.00 49 1011.8
20260509171017 33 294 3.2 17.7 0.00 0.00 0.00 48 1011.9
20260509170517 33 245 4.8 19.3 0.00 0.00 0.00 49 1012.0
20260509170041 32 224 9.7 19.3 0.00 0.00 0.00 50 1011.9
20260509165518 33 220 8.0 19.3 0.00 0.00 0.00 51 1012.1
20260509165017 32 242 1.6 17.7 0.00 0.00 0.00 51 1012.2
20260509164537 33 236 4.8 17.7 0.00 0.00 0.00 49 1012.1
20260509164018 33 236 3.2 17.7 0.00 0.00 0.00 49 1012.2
20260509163517 32 171 3.2 17.7 0.00 0.00 0.00 51 1012.4
20260509163045 32 268 8.0 24.1 0.00 0.00 0.00 52 1012.5
20260509162522 32 238 9.7 24.1 0.00 0.00 0.00 51 1012.5
20260509162018 32 207 3.2 20.9 0.00 0.00 0.00 52 1012.4
20260509161542 31 265 9.7 20.9 0.00 0.00 0.00 55 1012.5
20260509161020 32 211 6.4 17.7 0.00 0.00 0.00 52 1012.5
20260509160518 32 136 4.8 17.7 0.00 0.00 0.00 51 1012.4
20260509160042 32 0 1.6 17.7 0.00 0.00 0.00 52 1012.5
20260509155517 32 227 3.2 16.1 0.00 0.00 0.00 52 1012.5
20260509155017 32 243 1.6 16.1 0.00 0.00 0.00 54 1012.5
20260509154542 31 278 9.7 16.1 0.00 0.00 0.00 53 1012.5
20260509154017 32 0 3.2 14.5 0.00 0.00 0.00 53 1012.5
20260509153518 31 242 4.8 16.1 0.00 0.00 0.00 55 1012.5
20260509153048 31 233 6.4 17.7 0.00 0.00 0.00 57 1012.7
20260509152518 30 250 8.0 17.7 0.00 0.00 0.00 57 1012.8
20260509152018 30 290 11.3 17.7 0.00 0.00 0.00 57 1012.7
20260509151541 31 286 1.6 14.5 0.00 0.00 0.00 57 1013.0
20260509151021 30 188 3.2 14.5 0.00 0.00 0.00 59 1013.0
20260509150521 30 263 4.8 12.9 0.00 0.00 0.00 61 1013.1
20260509150042 30 112 3.2 12.9 0.00 0.00 0.00 61 1013.1
20260509145520 29 248 6.4 12.9 0.00 0.00 0.00 62 1013.2
20260509145018 30 242 1.6 11.3 0.00 0.00 0.00 65 1013.2
20260509144534 28 269 1.6 11.3 0.00 0.00 0.00 67 1013.3
20260509144018 28 285 4.8 11.3 0.00 0.00 0.00 69 1013.3
20260509143518 28 277 0.0 11.3 0.00 0.00 0.00 70 1013.3
20260509143051 27 132 3.2 12.9 0.00 0.00 0.00 72 1013.3
20260509142518 28 246 4.8 12.9 0.00 0.00 0.00 70 1013.2
20260509142018 28 259 0.0 4.8 0.00 0.00 0.00 70 1013.1
20260509141541 28 349 1.6 8.0 0.00 0.00 0.00 72 1013.1
20260509141019 27 227 1.6 8.0 0.00 0.00 0.00 74 1013.0
20260509140520 27 181 1.6 6.4 0.00 0.00 0.00 75 1013.0
20260509140045 27 265 1.6 4.8 0.00 0.00 0.00 76 1013.0
20260509135520 27 0 1.6 9.7 0.00 0.00 0.00 75 1013.1
20260509135020 27 207 1.6 11.3 0.00 0.00 0.00 76 1013.1
20260509134537 27 89 4.8 11.3 0.00 0.00 0.00 75 1013.1
20260509134019 27 134 1.6 12.9 0.00 0.00 0.00 77 1012.9
20260509133519 26 153 4.8 12.9 0.00 0.00 0.00 78 1012.9
20260509133040 26 139 6.4 12.9 0.00 0.00 0.00 79 1012.9
20260509132520 26 141 4.8 11.3 0.00 0.00 0.00 79 1012.9
20260509132018 26 138 4.8 11.3 0.00 0.00 0.00 80 1012.9
20260509131537 25 119 3.2 11.3 0.00 0.00 0.00 82 1013.0
20260509131018 25 156 1.6 9.7 0.00 0.00 0.00 83 1012.9
20260509130520 25 139 3.2 9.7 0.00 0.00 0.00 82 1013.1
20260509130037 25 85 4.8 11.3 0.00 0.00 0.00 84 1013.1
20260509125523 25 150 4.8 11.3 0.00 0.00 0.00 85 1013.1
20260509125019 24 123 4.8 9.7 0.00 0.00 0.00 85 1013.1
20260509124532 24 148 3.2 9.7 0.00 0.00 0.00 86 1013.0
20260509124019 23 103 3.2 11.3 0.00 0.00 0.00 88 1013.0
20260509123516 23 113 4.8 12.9 0.00 0.00 0.00 90 1013.0
20260509123035 23 106 4.8 12.9 0.00 0.00 0.00 92 1012.9
20260509122515 23 113 6.4 11.3 0.00 0.00 0.00 92 1012.9
20260509122019 22 117 3.2 9.7 0.00 0.00 0.00 94 1012.9
20260509121541 22 113 3.2 9.7 0.00 0.00 0.00 95 1013.0
20260509121018 22 120 3.2 6.4 0.00 0.00 0.00 95 1012.9
20260509120519 22 82 3.2 6.4 0.00 0.00 0.00 96 1012.8
20260509120038 22 107 1.6 6.4 0.00 0.00 0.00 96 1012.9
20260509115517 21 92 3.2 6.4 0.00 0.00 0.00 96 1013.0
20260509115018 22 0 1.6 4.8 0.00 0.00 0.00 96 1012.9
20260509114541 21 113 3.2 4.8 0.00 0.00 0.00 96 1012.7
20260509114016 21 115 0.0 3.2 0.00 0.00 0.00 96 1012.8
20260509113520 21 0 0.0 0.0 0.00 0.00 0.00 96 1012.7
20260509113041 21 0 0.0 0.0 0.00 0.00 0.00 96 1012.7
20260509112519 21 0 0.0 0.0 0.00 0.00 0.00 96 1012.6
20260509112020 21 0 0.0 0.0 0.00 0.00 0.00 96 1012.5
20260509111540 21 0 0.0 0.0 0.00 0.00 0.00 96 1012.5
20260509111020 21 0 0.0 3.2 0.00 0.00 0.00 96 1012.5
20260509110518 21 0 0.0 4.8 0.00 0.00 0.00 96 1012.5
20260509110038 21 263 1.6 4.8 0.00 0.00 0.00 96 1012.4
20260509105517 21 269 0.0 3.2 0.00 0.00 0.00 96 1012.3
20260509105018 21 248 0.0 3.2 0.00 0.00 0.00 96 1012.2
20260509104539 21 0 0.0 3.2 0.00 0.00 0.00 96 1012.1
20260509104016 21 0 0.0 3.2 0.00 0.00 0.00 96 1012.1
20260509103517 21 0 0.0 4.8 0.00 0.00 0.00 96 1012.0
20260509103041 21 0 0.0 6.4 0.00 0.00 0.00 96 1012.0
20260509102518 21 0 0.0 6.4 0.00 0.00 0.00 96 1012.0
20260509102017 21 69 0.0 3.2 0.00 0.00 0.00 96 1012.0
20260509101536 21 0 0.0 4.8 0.00 0.00 0.00 96 1011.9
20260509101017 21 0 0.0 6.4 0.00 0.00 0.00 96 1011.8
20260509100517 20 0 1.6 6.4 0.00 0.00 0.00 96 1011.7
20260509100049 20 23 1.6 4.8 0.00 0.00 0.00 96 1011.8
20260509095521 20 0 1.6 4.8 0.00 0.00 0.00 96 1011.7
20260509095017 18 0 0.0 0.0 0.00 0.00 0.00 96 1011.8
20260509094542 18 0 0.0 0.0 0.00 0.00 0.00 95 1011.8
20260509094017 18 0 0.0 0.0 0.00 0.00 0.00 95 1011.7
20260509093517 18 0 0.0 0.0 0.00 0.00 0.00 95 1011.9
20260509093042 18 0 0.0 0.0 0.00 0.00 0.00 95 1011.7
20260509092517 18 0 0.0 0.0 0.00 0.00 0.00 95 1011.9
20260509092021 19 0 0.0 0.0 0.00 0.00 0.00 95 1011.9
20260509091538 19 0 0.0 0.0 0.00 0.00 0.00 95 1011.8
20260509091017 19 0 0.0 0.0 0.00 0.00 0.00 95 1011.9
20260509090517 19 0 0.0 0.0 0.00 0.00 0.00 95 1011.9
20260509090042 19 0 0.0 0.0 0.00 0.00 0.00 95 1011.9
20260509085518 19 0 0.0 0.0 0.00 0.00 0.00 95 1011.9
20260509085017 19 0 0.0 0.0 0.00 0.00 0.00 95 1012.1
20260509084541 19 0 0.0 0.0 0.00 0.00 0.00 95 1012.1
20260509084021 18 0 0.0 0.0 0.00 0.00 0.00 95 1012.1
20260509083520 19 0 0.0 0.0 0.00 0.00 0.00 95 1012.2
20260509083043 19 0 0.0 0.0 0.00 0.00 0.00 95 1012.2
20260509082516 20 0 0.0 0.0 0.00 0.00 0.00 95 1012.1
20260509082016 19 0 0.0 0.0 0.00 0.00 0.00 94 1012.0
20260509081539 20 0 0.0 0.0 0.00 0.00 0.00 95 1012.1
20260509081017 20 0 0.0 0.0 0.00 0.00 0.00 94 1012.0
20260509080518 20 0 0.0 0.0 0.00 0.00 0.00 94 1012.1
20260509080041 20 0 0.0 0.0 0.00 0.00 0.00 95 1012.1
20260509075517 20 0 0.0 0.0 0.00 0.00 0.00 95 1012.1
20260509075017 20 0 0.0 0.0 0.00 0.00 0.00 95 1012.3
20260509074536 20 0 0.0 0.0 0.00 0.00 0.00 95 1012.2
20260509074017 20 0 0.0 0.0 0.00 0.00 0.00 95 1012.3
20260509073521 20 0 0.0 0.0 0.00 0.00 0.00 94 1012.3
20260509073043 20 0 0.0 0.0 0.00 0.00 0.00 95 1012.4
20260509072517 20 0 0.0 0.0 0.00 0.00 0.00 94 1012.4
20260509072020 20 0 0.0 0.0 0.00 0.00 0.00 94 1012.4
20260509071533 20 0 0.0 0.0 0.00 0.00 0.00 94 1012.6
20260509071017 20 0 0.0 0.0 0.00 0.00 0.00 94 1012.6
20260509070517 20 0 0.0 0.0 0.00 0.00 0.00 94 1012.6
20260509070044 21 0 0.0 0.0 0.00 0.00 0.00 94 1012.7
20260509065516 21 0 0.0 0.0 0.00 0.00 0.00 94 1012.7
20260509065016 20 0 0.0 0.0 0.00 0.00 0.00 95 1012.7
20260509064541 20 0 0.0 0.0 0.00 0.00 0.00 95 1012.8
20260509064017 20 0 0.0 0.0 0.00 0.00 0.00 94 1012.9